Preview of NWS' New Version of Forecast
This preview is not operational and should not be used for support decisions.

Regional Weather Roundup (RWR)

Issued by National Weather Service (NWS)

                            
000
ASCA42 TJSJ 201310
RWRPR 
PUERTO RICO/U.S. VIRGIN ISLANDS HOURLY WEATHER ROUNDUP
NATIONAL WEATHER SERVICE SAN JUAN PR
900 AM AST SAT APR 20 2019

PRZ001>002-007>008-010-201400-
PUERTO RICO
  
CITY           SKY/WX    TMP DP  RH WIND       PRES   REMARKS
SAN JUAN LMM   MOSUNNY   82  68  61 E14       30.12R                  
AGUADILLA      SUNNY     81  66  61 E13G21    30.11R                  
CEIBA          MOSUNNY   84  68  58 MISG      30.13R                  
$$

VIZ001>002-201400-
U.S. VIRGIN ISLANDS
  
CITY           SKY/WX    TMP DP  RH WIND       PRES   REMARKS
CHARLOTTE AMA  MOSUNNY   81  66  61 E17       30.11R                  
CHRISTIANSTED  MOSUNNY   84  66  54 E20       30.11R                  
$$

HOURLY WEATHER ROUNDUP FOR THE NEWS MEDIA
  
CITY           SKY/WX    TMP DP  RH WIND       PRES   REMARKS
ORLANDO        FAIR      65  53  65 W13G23    29.94R                  
NEW YORK       LGT RAIN  60  60 100 S25G33    29.75S VSB 1/2          
NEWARK         RAIN      64  63  96 S13G21    29.73S FOG              
CHICAGO        FAIR      45  25  45 N21G29    29.83R                  
HARTFORD       CLOUDY    61  61 100 S24G38    29.88R                  
BOSTON         CLOUDY    67  63  87 S20G26    29.84R                  
DALLAS         MOSUNNY   54  46  74 CALM      30.08R                  
PHILADELPHIA   LGT RAIN  67  64  90 S18G25    29.67  FOG              
LOS ANGELES    CLOUDY    58  50  75 CALM      29.93R                  
WASHINGTON DC  PTSUNNY   67  60  78 S14G23    29.58R